ESSAIM-3

Satellite information

Favourite Embed

Satellite Type and Status

PAYLOADIN ORBIT

Key statistics

Satellite ESSAIM-3 at a glance.

Uptime

7666

Days in orbit

Revolutions

≈ 15.0

Per day

Orbit

SSO

Sun Synchronous Orbit

Inclination

98.2

Latest

Satellite identification and parameters

Extended collection of information and parameters for ESSAIM-3.

Object identification

Identified? True

Debris? False

Object name: ESSAIM-3

International designator: 2004-049E

Object number (NORAD): 28496

Object ID (CCSDS): 28496

Country: FRANCE (FR)

Current information (Y/N): Y

RCS size: MEDIUM

Orbital parameters

Period: 96.295 minutes

Inclination: 98.2145 deg

SMA: 6959.241 km

Apoapsis: 582.721 km

Periapsis: 579.492 km

RAAN: 270.2175 deg

Eccentricy: 0.00023199

Argument of periapsis: 116.0943 deg

Mean anomaly: 244.0515 deg

Mean motion: 14.95408814 rev/day

Mean motion (dot): 0.00003858 rev/day2

B* drag term: 0.00035489565 1/REarth

Two-line elements (TLE)

Creation date: Dec. 14, 2025, 3:07 a.m.

Reference frame: TEME

Reference center: EARTH

Epoch: Dec. 13, 2025, 12:24 p.m. UTC

TLE line 0: 0 ESSAIM-3

TLE line 1: 1 28496U 04049E 25347.51668782 .00003858 00000-0 35490-3 0 9998

TLE line 2: 2 28496 98.2145 270.2175 0002320 116.0943 244.0515 14.95408814134963

Live tracking on map

Real-time ground track for satellite ESSAIM-3.

In-orbit conjunctions

There are no conjunctions computed for ESSAIM-3, at the moment. Check back to stay up to date, as we update our databases every day.

Go to all conjunctions

Associated space launch

Helios and Essaim are French miltary satellites for observation of Earth. Parasol is an Earth Observation research satellite.Nanosat 01 is a small technologu demonstator for the spanish space agency INTA.

ESSAIM-3 was lifted into orbit during the mission ‘Ariane 5 G+ | Helios 2A, Essaim 1, 2, 3, 4, PARASOL, Nanosat 01’, on board a Ariane 5 G+ space rocket.

The launch took place on Dec. 18, 2004, 4:26 p.m. from Ariane Launch Area 3.

For more information about the launch, click the button.

Launch to space Ariane 5 G+ | Helios 2A, Essaim 1, 2, 3, 4, PARASOL, Nanosat 01
Ariane 5 G+ | Helios 2A, Essaim 1, 2, 3, 4, PARASOL, Nanosat 01

Agency: N/A

Status: Launch Successful

Launch date: Dec. 18, 2004, 4:26 p.m. UTC

Rocket: Ariane 5 G+

Launch pad: Ariane Launch Area 3

Location: Guiana Space Centre, French Guiana

...

Latest news about this satellite

There are no fresh news available about this satellite. Check back as we update our databases every day.


Newsletter sign-up

Weekly statistics, charts and insights to help you stay on top of the space industry.